Tracking 19794 objects as of 21-Jul-2019
HD Live streaming from Space Station
objects crossing your sky now

ANIK A2 (TELESAT 2)

Track ANIK A2 (TELESAT 2) now!
ANIK A2 (TELESAT 2) is classified as:


NORAD ID: 6437
Int'l Code: 1973-023A
Perigee: 35,872.0 km
Apogee: 35,978.4 km
Inclination: 12.4 °
Period: 1,442.8 minutes
Semi major axis: 42296 km
RCS: 3.1458 m2 (large)
Launch date: April 20, 1973
Source: Canada (CA)
Launch site: AIR FORCE EASTERN TEST RANGE (AFETR)
aabbcc
Your satellite tracking list
Your tracking list is empty




NASA's NSSDC Master Catalog

Two Line Element Set (TLE):
1  6437U 73023A   19201.04183003 -.00000101 +00000-0 +00000-0 0  9990
2  6437 012.4091 321.2526 0012577 009.9366 341.6060 00.99804704021953
Source of the keplerian elements: AFSPC